Broomfield, CO

7:28 PM MDT on October 16, 2017 (GMT -0600)
Jeffco

Weather History for KBJC - March, 2014

Change the Weather History Date:

Saturday, March 8, 2014

  Actual Average Record
Temperature  
Mean Temperature 41 °F -  
Max Temperature 50 °F 48 °F 72 °F (1986)
Min Temperature 32 °F 27 °F 5 °F (1998)
Degree Days  
Heating Degree Days 24    
Moisture  
Dew Point 28 °F    
Average Humidity 73    
Maximum Humidity 100    
Minimum Humidity 32    
Precipitation  
Precipitation 0.00 in - - ()
Sea Level Pressure  
Sea Level Pressure 30.24 in    
Wind  
Wind Speed 4 mph (West)    
Max Wind Speed 8 mph    
Max Gust Speed -    
Visibility 10 miles    
Events      
Averages and records for this station are not official NWS values.
T = Trace of Precipitation, MM = Missing Value Source: NWS Daily Summary

Daily Weather History Graph

Daily Weather History Graph

Search for Another Location

Airport or City:

Trip Planner

Search our weather history database for the weather conditions in past years. The results will help you decide how hot, cold, wet, or windy it might be!

Date:

Astronomy

Mar. 08, 2014 Rise Set
Actual Time 6:22 AM MST 6:00 PM MST
Civil Twilight 5:55 AM MST 6:27 PM MST
Nautical Twilight 5:24 AM MST 6:58 PM MST
Astronomical Twilight 4:53 AM MST 7:29 PM MST
Moon 11:06 AM MST (3/8) 12:59 AM MST (3/8)
Length of Visible Light 12h 31m
Length of Day
11h 37m
First Quarter, 52% of the Moon is Illuminated
Mar 8
First Quarter
Mar 16
Full
Mar 23
Last Quarter
Mar 30
New
Apr 7
First Quarter

Hourly Weather History & Observations

Time (MST) Temp. Windchill Dew Point Humidity Pressure Visibility Wind Dir Wind Speed Gust Speed Precip Events Conditions
12:14 AM 32.0 °F 28.7 °F 32.0 °F 100% 30.17 in 10.0 mi West 3.5 mph - N/A   Overcast
12:35 AM 32.0 °F - 32.0 °F 100% 30.18 in 10.0 mi Calm Calm - N/A   Overcast
12:55 AM 33.8 °F 29.6 °F 32.0 °F 93% 30.18 in 10.0 mi NW 4.6 mph - N/A   Overcast
1:15 AM 33.8 °F 28.6 °F 32.0 °F 93% 30.19 in 10.0 mi NW 5.8 mph - N/A   Overcast
1:35 AM 33.8 °F 28.6 °F 32.0 °F 93% 30.19 in 10.0 mi NW 5.8 mph - N/A   Mostly Cloudy
1:55 AM 33.8 °F 28.6 °F 30.2 °F 87% 30.19 in 10.0 mi NNW 5.8 mph - N/A   Scattered Clouds
2:15 AM 33.8 °F 28.6 °F 30.2 °F 87% 30.19 in 10.0 mi NW 5.8 mph - N/A   Clear
2:35 AM 33.8 °F 28.6 °F 30.2 °F 87% 30.19 in 10.0 mi NNW 5.8 mph - N/A   Clear
2:55 AM 33.8 °F 29.6 °F 30.2 °F 87% 30.19 in 10.0 mi NW 4.6 mph - N/A   Clear
3:15 AM 33.8 °F 28.6 °F 30.2 °F 87% 30.20 in 10.0 mi NW 5.8 mph - N/A   Scattered Clouds
3:34 AM 32.0 °F 26.4 °F 30.2 °F 93% 30.20 in 10.0 mi NW 5.8 mph - N/A   Mostly Cloudy
3:55 AM 33.8 °F 28.6 °F 30.2 °F 87% 30.21 in 10.0 mi NW 5.8 mph - N/A   Overcast
4:13 AM 33.8 °F 29.6 °F 30.2 °F 87% 30.22 in 10.0 mi NW 4.6 mph - N/A   Overcast
4:34 AM 33.8 °F 29.6 °F 30.2 °F 87% 30.22 in 10.0 mi NW 4.6 mph - N/A   Overcast
4:55 AM 33.8 °F 29.6 °F 28.4 °F 81% 30.22 in 10.0 mi NW 4.6 mph - N/A   Overcast
5:45 AM 32.0 °F - 26.6 °F 80% 30.23 in 50.0 mi Calm Calm - N/A   Mostly Cloudy
6:45 AM 32.0 °F - 26.6 °F 80% 30.24 in 75.0 mi Calm Calm - N/A   Scattered Clouds
7:50 AM 32.0 °F - 28.4 °F 87% 30.27 in 75.0 mi Calm Calm - N/A   Scattered Clouds
8:50 AM 33.8 °F 30.8 °F 30.2 °F 87% 30.30 in 75.0 mi WSW 3.5 mph - N/A   Scattered Clouds
9:47 AM 37.4 °F 32.8 °F 30.2 °F 75% 30.31 in 70.0 mi WSW 5.8 mph - N/A   Scattered Clouds
10:47 AM 41.0 °F - 30.2 °F 65% 30.31 in 70.0 mi Calm Calm - N/A   Partly Cloudy
11:47 AM 41.0 °F 37.1 °F 32.0 °F 70% 30.31 in 70.0 mi West 5.8 mph - N/A   Partly Cloudy
12:47 PM 46.4 °F 45.2 °F 28.4 °F 50% 30.28 in 70.0 mi Variable 3.5 mph - N/A   Scattered Clouds
1:47 PM 46.4 °F 44.3 °F 26.6 °F 46% 30.27 in 70.0 mi WSW 4.6 mph - N/A   Scattered Clouds
2:45 PM 48.2 °F - 23.0 °F 37% 30.24 in 70.0 mi SSW 6.9 mph - N/A   Scattered Clouds
3:45 PM 50.0 °F - 21.2 °F 32% 30.26 in 50.0 mi Calm Calm - N/A   Partly Cloudy
4:45 PM 50.0 °F - 24.8 °F 37% 30.26 in 5.0 mi SE 5.8 mph - N/A   Partly Cloudy
5:52 PM 44.6 °F 41.4 °F 26.6 °F 49% 30.27 in 50.0 mi South 5.8 mph - N/A   Clear
6:49 PM 37.4 °F 31.4 °F 28.4 °F 70% 30.29 in 50.0 mi WSW 8.1 mph - N/A   Clear
7:51 PM 35.6 °F 30.7 °F 28.4 °F 75% 30.28 in 50.0 mi SW 5.8 mph - N/A   Clear
8:51 PM 37.4 °F 31.4 °F 28.4 °F 70% 30.28 in 30.0 mi SW 8.1 mph - N/A   Clear
9:51 PM 35.6 °F 31.7 °F 26.6 °F 70% 30.27 in 30.0 mi SW 4.6 mph - N/A   Clear
10:15 PM 35.6 °F 30.7 °F 26.6 °F 70% 30.25 in 10.0 mi SSW 5.8 mph - N/A   Clear
10:35 PM 35.6 °F 31.7 °F 26.6 °F 70% 30.24 in 10.0 mi SSW 4.6 mph - N/A   Clear
10:55 PM 33.8 °F 30.8 °F 23.0 °F 65% 30.23 in 10.0 mi WSW 3.5 mph - N/A   Clear
11:15 PM 33.8 °F 28.6 °F 23.0 °F 65% 30.24 in 10.0 mi West 5.8 mph - N/A   Clear
11:35 PM 37.4 °F - 19.4 °F 48% 30.24 in 10.0 mi Calm Calm - N/A   Clear
11:55 PM 39.2 °F 35.0 °F 19.4 °F 45% 30.24 in 10.0 mi NW 5.8 mph - N/A   Clear